Regional Weather Roundup
Issued by NWS

Home | Current Version | Previous Version | Text Only | Print | Product List | Glossary Off
Versions: 1 2 3 4 5 6 7 8 9 10 11 12 13 14 15 16 17 18 19 20 21 22 23 24 25 26 27 28 29 30 31 32 33 34 35 36 37 38 39 40 41 42 43 44 45 46 47 48 49 50

306
ASUS43 KDTX 120810
RWRMI
MICHIGAN HOURLY REGIONAL WEATHER ROUNDUP
NATIONAL WEATHER SERVICE DETROIT/PONTIAC MI
300 AM EST TUE DEC 12 2017

NOTE: "FAIR" INDICATES FEW OR NO CLOUDS BELOW 12,000 FEET WITH NO
SIGNIFICANT WEATHER AND/OR OBSTRUCTION TO VISIBILITY.

MIZ047>049-052>055-059>063-066>070-074>076-081>083-120900-
SOUTHEAST LOWER MICHIGAN

CITY           SKY/WX    TMP DP  RH WIND       PRES   REMARKS
ADRIAN         CLOUDY    30  22  72 N17G28    29.71R WCI  18
ALMA           CLOUDY    25  19  78 NW17G25   29.76R WCI  11
ANN ARBOR      CLOUDY    29  24  82 NW15G25   29.69R WCI  18
BAD AXE        CLOUDY    26  21  80 NW20      29.65R WCI  13
CARO           CLOUDY    28  22  80 NW17G23   29.67R WCI  15
DETROIT CITY   CLOUDY    30  26  85 NW10      29.65R WCI  21
DETROIT        LGT SNOW  31  25  78 NW20G30   29.68R WCI  19
FLINT          FLURRIES  26  22  84 NW16      29.70R WCI  14
GROSSE ILE     CLOUDY    31  29  90 NW12      29.65R WCI  22
HILLSDALE      LGT SNOW  28  25  86 NW15      29.70R WCI  17
HOWELL         LGT SNOW  27  24  87 NW17      29.69R WCI  14

CITY           SKY/WX    TMP DP  RH WIND       PRES   REMARKS
JACKSON        LGT SNOW  28  24  85 W15G24    29.72R FOG     WCI  16
LAMBERTVILLE   CLOUDY    31  28  88 NW8       29.69R WCI  24
LANSING        CLOUDY    26  20  77 NW17G28   29.75R WCI  13
LAPEER         FLURRIES  28  24  86 NW10G18   29.66R WCI  18
MASON          LGT SNOW  28  21  75 NW16G28   29.73R WCI  16
MONROE         CLOUDY    31  27  85 NW15G21   29.67R WCI  20
MT. CLEMENS    MIX PCPN  30  29  96 NW10      29.63R WCI  21
PONTIAC        LGT SNOW  27  25  92 NW17      29.65R FOG     WCI  14
PORT HOPE        N/A     28  20  71 NW23G35   29.62R WCI  14
PORT HURON     LGT SNOW  28  25  86 NW12G20   29.63R WCI  18
TRI CITIES     CLOUDY    25  18  74 NW22G32   29.72R WCI  10
MIDLAND        CLOUDY    25  17  72 NW18G25   29.73R WCI  11
TROY           LGT SNOW  30  26  85 NW10G18   29.67R WCI  21
SAGINAW HB     CLOUDY    28  23  80 NW15      29.70R WCI  17
$$
MIZ043>046-050>051-056>058-064>065-071>073-077>080-120900-
SOUTHWEST LOWER MICHIGAN

CITY           SKY/WX    TMP DP  RH WIND       PRES   REMARKS
BATTLE CREEK   CLOUDY    27  19  72 NW18G26   29.78R WCI  14
BENTON HARBOR  CLOUDY    29  17  61 N14G36    29.87R WCI  18
BIG RAPIDS     LGT SNOW  20  15  80 NW13G24   29.80R WCI   8
COLDWATER      LGT SNOW  28  26  89 NW14G22   29.76R WCI  17
FREMONT        FLURRIES  20  17  86 NW20G25   29.84R WCI   5
HOLLAND        FLURRIES  26  16  65 N12G23    29.86R WCI  16
GRAND RAPIDS   CLOUDY    25  16  68 NW24G30   29.81R WCI   9
IONIA          CLOUDY    25  17  70 NW12G25   29.77R WCI  14
KALAMAZOO      CLOUDY    27  19  72 NW21G29   29.80R WCI  13
LUDINGTON      CLOUDY    22   9  57 N17G33    29.88R WCI   7
MARSHALL       CLOUDY    28  20  75 NW12G20   29.76R WCI  17
MOUNT PLEASANT CLOUDY    24  15  66 NW18G29   29.75R WCI  11
MUSKEGON       LGT SNOW  23  16  74 N21G33    29.88R WCI   8
SOUTH HAVEN    CLOUDY    30  16  55 NW21G30   29.85R WCI  17
$$
MIZ016>042-120900-
NORTHERN LOWER MICHIGAN

CITY           SKY/WX    TMP DP  RH WIND       PRES   REMARKS
ALPENA         CLOUDY    20  12  71 NW15G23   29.67R WCI   6
BEAVER ISLAND  MOCLDY    16   8  70 NW18G29   29.85R HAZE    WCI   0
BELLAIRE       CLOUDY    19  10  68 NW10G23   29.83R WCI   8
CADILLAC       PTCLDY    17  10  74 NW20G30   29.75R WCI   1
CHARLEVOIX     LGT SNOW  19  12  73 NW28G38   29.85R WCI   1
FRANKFORT      PTCLDY    22  10  59 NW18G30   29.87R WCI   8
GAYLORD        LGT SNOW  15   9  76 NW12G22   29.71R WCI   2
GRAYLING       CLOUDY    17   6  61 NW16G28   29.73R WCI   2
HARBOR SPRINGS CLOUDY    17   6  63 NW17G24   29.79R WCI   1
HOUGHTON LAKE  CLOUDY    18  10  71 NW22G32   29.73R HAZE    WCI   1
MANISTEE       LGT SNOW  21  12  68 NW20G29   29.87R WCI   6
OSCODA         PTCLDY    22  12  66 NW22G29   29.66R WCI   6
PELLSTON       LGT SNOW  15   6  67 NW22G32   29.79R WCI  -3
ROGERS CITY    LGT SNOW  20  15  81 NW16G29   29.69R WCI   6
TRAVERSE CITY  LGT SNOW  20  14  77 NW22G39   29.83R WCI   3
$$
MIZ007>008-015-120900-
EASTERN UPPER MICHIGAN

CITY           SKY/WX    TMP DP  RH WIND       PRES   REMARKS
KINROSS        LGT SNOW  11   5  77 N21G29    29.75R WCI  -8
MACKINAC ISLAN CLOUDY    16   7  69 N24G33    29.76R WCI  -3
NEWBERRY       LGT SNOW  10   8  92 NW15G30   29.83R VSB 1   WCI  -6
S. S. MARIE    PTCLDY     9   0  67 NW16G26   29.77R WCI  -8
MUNISING         N/A     19  16  88 N26G38    29.92R WCI   1
$$
MIZ004>006-011>014-085-120900-
CENTRAL UPPER MICHIGAN

CITY           SKY/WX    TMP DP  RH WIND       PRES   REMARKS
MANISTIQUE     LGT SNOW  13   8  80 N17       29.88R WCI  -4
ESCANABA       MOCLDY    13   3  64 NW15G24   29.95R WCI  -3
MENOMINEE      MOCLDY    14   4  64 N14G22    29.99R WCI  -1
SAWYER-GWINN   LGT SNOW  10   6  82 NW18      29.92R WCI  -8
$$
MIZ001>003-009>011-084-120900-
WESTERN UPPER MICHIGAN

CITY           SKY/WX    TMP DP  RH WIND       PRES   REMARKS
IRON MOUNTAIN  CLOUDY    11   2  67 NW18G28   29.96R WCI  -7
HOUGHTON       LGT SNOW  10   1  67 N13       30.01R WCI  -5
COPPER HARBOR    N/A     14   8  77 N29G38    30.01R WCI  -7
IRONWOOD       FLURRIES  12   4  70 NW14G22   30.06R WCI  -3
$$

ABBREVIATIONS USED IN REMARKS
   TC - TEMPERATURE IN CELSIUS
  WCI - WIND CHILL INDEX
   HX - HEAT INDEX
  VSB - VISIBILITY





USA.gov is the U.S. government's official web portal to all federal, state and local government web resources and services.